Change the Weather History Date:

Thursday, April 26, 2012

  Actual Average Record
Temperature  
Mean Temperature 58 °F -  
Max Temperature 67 °F 65 °F 83 °F (2011)
Min Temperature 48 °F 43 °F 35 °F (2001)
Degree Days  
Heating Degree Days 7    
Month to date heating degree days 296  
Growing Degree Days 8 (Base 50)    
Moisture  
Dew Point 48 °F    
Average Humidity 55    
Maximum Humidity 68    
Minimum Humidity 41    
Precipitation  
Precipitation T in - - ()
Month to date precipitation 2.20  
Year to date precipitation 8.58  
Sea Level Pressure  
Sea Level Pressure 29.72 in    
Wind  
Wind Speed 5 mph (West)    
Max Wind Speed 10 mph    
Max Gust Speed 14 mph    
Visibility 10 miles    
Events Rain , Thunderstorm    
Averages and records for this station are not official NWS values.
T = Trace of Precipitation, MM = Missing Value Source: NWS Daily Summary

Daily Weather History Graph

Daily Weather History Graph

Search for Another Location

Airport or City:

Trip Planner

Search our weather history database for the weather conditions in past years. The results will help you decide how hot, cold, wet, or windy it might be!

Date:

Astronomy

Apr. 26, 2012 Rise Set
Actual Time 6:17 AM EDT 8:00 PM EDT
Civil Twilight 5:48 AM EDT 8:29 PM EDT
Nautical Twilight 5:13 AM EDT 9:04 PM EDT
Astronomical Twilight 4:36 AM EDT 9:41 PM EDT
Moon 9:55 AM EDT (4/26) 12:03 AM EDT (4/26)
Length of Visible Light 14h 40m
Length of Day
13h 43m
Waxing Crescent, 24% of the Moon is Illuminated
Apr 26
Waxing Crescent
Apr 29
First Quarter
May 5
Full
May 12
Last Quarter
May 20
New

Hourly Weather History & Observations

Time (EDT) Temp. Dew Point Humidity Pressure Visibility Wind Dir Wind Speed Gust Speed Precip Events Conditions
12:53 AM 53.1 °F 30.0 °F 41% 29.88 in 10.0 mi East 5.8 mph - N/A   Overcast
1:53 AM 53.1 °F 33.1 °F 47% 29.85 in 10.0 mi NE 4.6 mph - N/A   Overcast
2:53 AM 55.0 °F 33.1 °F 43% 29.83 in 10.0 mi East 4.6 mph - N/A   Overcast
3:53 AM 51.1 °F 39.0 °F 63% 29.81 in 10.0 mi Calm Calm - 0.00 in Rain Light Rain
4:53 AM 48.9 °F 37.9 °F 66% 29.79 in 10.0 mi Calm Calm - 0.00 in   Overcast
5:53 AM 48.9 °F 37.9 °F 66% 29.80 in 10.0 mi WNW 3.5 mph - N/A   Overcast
6:53 AM 48.9 °F 37.9 °F 66% 29.81 in 10.0 mi North 3.5 mph - N/A   Overcast
7:53 AM 50.0 °F 37.9 °F 63% 29.81 in 10.0 mi NNW 3.5 mph - N/A   Overcast
8:53 AM 52.0 °F 39.9 °F 63% 29.78 in 10.0 mi NNW 5.8 mph - N/A   Mostly Cloudy
9:53 AM 55.9 °F 42.1 °F 60% 29.76 in 10.0 mi Variable 3.5 mph - N/A   Overcast
10:53 AM 57.9 °F 45.0 °F 62% 29.75 in 10.0 mi WNW 3.5 mph - N/A   Clear
11:53 AM 60.1 °F 46.9 °F 62% 29.73 in 10.0 mi South 6.9 mph - N/A   Clear
12:53 PM 63.0 °F 50.0 °F 63% 29.70 in 10.0 mi Variable 3.5 mph - N/A   Partly Cloudy
1:53 PM 64.9 °F 51.1 °F 61% 29.68 in 10.0 mi SSE 8.1 mph - N/A   Clear
2:53 PM 66.0 °F 53.1 °F 63% 29.66 in 10.0 mi SW 8.1 mph - N/A   Scattered Clouds
3:42 PM 66.2 °F 53.6 °F 64% 29.62 in 10.0 mi SSE 6.9 mph - N/A   Mostly Cloudy
3:53 PM 66.0 °F 54.0 °F 65% 29.64 in 10.0 mi SE 6.9 mph - N/A   Mostly Cloudy
4:40 PM 66.2 °F 55.4 °F 68% 29.61 in 10.0 mi SSE 8.1 mph - N/A   Scattered Clouds
4:53 PM 66.9 °F 55.0 °F 66% 29.63 in 10.0 mi SE 4.6 mph - N/A   Scattered Clouds
5:53 PM 68.0 °F 55.9 °F 65% 29.61 in 10.0 mi South 8.1 mph - N/A   Partly Cloudy
6:53 PM 66.9 °F 57.9 °F 73% 29.61 in 10.0 mi South 8.1 mph - 0.00 in   Mostly Cloudy
7:53 PM 64.0 °F 59.0 °F 84% 29.61 in 10.0 mi South 6.9 mph - 0.00 in   Overcast
8:14 PM 62.6 °F 59.0 °F 88% 29.57 in 10.0 mi South 10.4 mph - N/A Thunderstorm Mostly Cloudy
8:24 PM 64.4 °F 57.2 °F 77% 29.60 in 10.0 mi West 9.2 mph 17.3 mph N/A Thunderstorm Scattered Clouds
8:45 PM 60.8 °F 57.2 °F 88% 29.63 in 9.0 mi NW 10.4 mph - 0.02 in Rain Light Rain
8:53 PM 60.1 °F 57.0 °F 90% 29.66 in 8.0 mi NNW 4.6 mph - 0.02 in Rain Light Rain
9:53 PM 60.1 °F 52.0 °F 75% 29.73 in 10.0 mi WNW 24.2 mph 33.4 mph 0.00 in   Overcast
10:28 PM 57.2 °F 50.0 °F 77% 29.74 in 9.0 mi NW 16.1 mph 25.3 mph N/A   Mostly Cloudy
10:50 PM 57.2 °F 46.4 °F 67% 29.74 in 10.0 mi NW 15.0 mph 26.5 mph N/A   Overcast
10:53 PM 55.9 °F 46.0 °F 69% 29.77 in 10.0 mi NNW 18.4 mph 25.3 mph N/A   Mostly Cloudy
11:53 PM 54.0 °F 43.0 °F 66% 29.79 in 10.0 mi NW 16.1 mph 25.3 mph N/A   Clear